�������l�o���
Date,Time,MP-1(��Sv/h),MP-2(��Sv/h),MP-3(��Sv/h),MP-4(��Sv/h),MP-5(��Sv/h),MP-6(��Sv/h),MP-7(��Sv/h),MP-8(��Sv/h),����,����(m/s),���J
2021/03/27,00:00,0.637,0.941,0.592,1.165,0.825,0.372,0.657,0.616,�k�k��,6.3,��
2021/03/27,00:10,0.638,0.940,0.591,1.166,0.825,0.375,0.658,0.617,�k��,6.1,��
2021/03/27,00:20,0.637,0.941,0.593,1.167,0.824,0.373,0.658,0.615,�k��,4.4,��
2021/03/27,00:30,0.637,0.939,0.592,1.168,0.826,0.372,0.657,0.617,�k�k��,1.4,��
2021/03/27,00:40,0.636,0.940,0.593,1.166,0.825,0.373,0.657,0.618,�k��,1.5,��
2021/03/27,00:50,0.638,0.939,0.592,1.164,0.825,0.373,0.655,0.616,���k��,3.4,��
2021/03/27,01:00,0.639,0.940,0.591,1.166,0.822,0.372,0.658,0.616,�k��,3.2,��
2021/03/27,01:10,0.637,0.938,0.593,1.165,0.824,0.371,0.656,0.616,���k��,2.6,��
2021/03/27,01:20,0.636,0.940,0.592,1.167,0.824,0.374,0.657,0.617,���k��,3.4,��
2021/03/27,01:30,0.637,0.936,0.590,1.167,0.827,0.373,0.656,0.617,���k��,4.1,��
2021/03/27,01:40,0.635,0.941,0.591,1.166,0.826,0.372,0.657,0.617,���k��,4.0,��
2021/03/27,01:50,0.638,0.938,0.592,1.166,0.823,0.373,0.657,0.616,�k��,5.5,��
2021/03/27,02:00,0.634,0.938,0.590,1.166,0.823,0.372,0.656,0.615,�k��,5.8,��
2021/03/27,02:10,0.638,0.939,0.590,1.167,0.825,0.373,0.657,0.615,�k��,7.1,��
2021/03/27,02:20,0.637,0.938,0.593,1.167,0.825,0.374,0.656,0.617,�k��,8.6,��
2021/03/27,02:30,0.637,0.939,0.592,1.167,0.823,0.372,0.656,0.616,�k��,9.4,��
2021/03/27,02:40,0.637,0.940,0.592,1.165,0.825,0.373,0.656,0.616,�k��,8.5,��
2021/03/27,02:50,0.636,0.939,0.592,1.166,0.824,0.374,0.658,0.616,�k��,9.9,��
2021/03/27,03:00,0.635,0.939,0.592,1.166,0.823,0.374,0.657,0.617,�k��,7.3,��
2021/03/27,03:10,0.636,0.939,0.592,1.166,0.825,0.372,0.659,0.617,�k��,7.9,��
2021/03/27,03:20,0.636,0.939,0.592,1.165,0.825,0.373,0.658,0.617,�k��,7.4,��
2021/03/27,03:30,0.637,0.939,0.591,1.165,0.825,0.373,0.657,0.615,�k��,6.9,��
2021/03/27,03:40,0.637,0.939,0.592,1.166,0.823,0.373,0.658,0.616,���k��,5.6,��
2021/03/27,03:50,0.636,0.938,0.590,1.164,0.824,0.372,0.658,0.617,�k��,4.7,��
2021/03/27,04:00,0.635,0.938,0.591,1.167,0.824,0.372,0.658,0.616,�k�k��,3.1,��
2021/03/27,04:10,0.636,0.937,0.592,1.165,0.823,0.373,0.658,0.616,�k�k��,2.2,��
2021/03/27,04:20,0.636,0.937,0.591,1.164,0.824,0.373,0.657,0.616,�k��,3.6,��
2021/03/27,04:30,0.634,0.938,0.591,1.165,0.824,0.373,0.657,0.616,�k�k��,3.4,��
2021/03/27,04:40,0.634,0.938,0.591,1.164,0.824,0.374,0.657,0.616,�k�k��,3.9,��
2021/03/27,04:50,0.635,0.938,0.591,1.166,0.823,0.373,0.656,0.616,�k��,5.1,��
2021/03/27,05:00,0.637,0.936,0.591,1.166,0.823,0.372,0.657,0.617,���k��,2.3,��
2021/03/27,05:10,0.636,0.937,0.591,1.167,0.823,0.375,0.657,0.617,��,1.2,��
2021/03/27,05:20,0.637,0.937,0.592,1.164,0.825,0.372,0.656,0.616,��,3.5,��
2021/03/27,05:30,0.636,0.936,0.591,1.166,0.823,0.373,0.657,0.616,���쐼,4.3,��
2021/03/27,05:40,0.635,0.937,0.591,1.167,0.823,0.372,0.654,0.616,��,4.2,��
2021/03/27,05:50,0.637,0.938,0.591,1.165,0.824,0.373,0.655,0.615,���k��,4.1,��
2021/03/27,06:00,0.635,0.938,0.592,1.165,0.824,0.372,0.656,0.615,���k��,4.0,��
2021/03/27,06:10,0.637,0.939,0.591,1.166,0.824,0.372,0.654,0.615,���k��,4.8,��
2021/03/27,06:20,0.635,0.937,0.591,1.170,0.823,0.372,0.657,0.615,���k��,5.7,��
2021/03/27,06:30,0.637,0.938,0.590,1.165,0.824,0.372,0.657,0.617,���k��,6.0,��
2021/03/27,06:40,0.636,0.938,0.591,1.167,0.824,0.373,0.657,0.616,���k��,5.0,��
2021/03/27,06:50,0.637,0.939,0.592,1.166,0.824,0.373,0.655,0.616,���k��,4.7,��
2021/03/27,07:00,0.637,0.939,0.592,1.167,0.825,0.371,0.657,0.616,���k��,4.0,��
2021/03/27,07:10,0.635,0.938,0.592,1.165,0.824,0.372,0.657,0.614,�k��,4.0,��
2021/03/27,07:20,0.637,0.938,0.592,1.167,0.825,0.374,0.657,0.615,�k��,3.6,��
2021/03/27,07:30,0.637,0.937,0.592,1.168,0.823,0.372,0.656,0.616,�k��,2.0,��
2021/03/27,07:40,0.637,0.940,0.592,1.167,0.822,0.374,0.658,0.616,�k��,1.5,��
2021/03/27,07:50,0.636,0.939,0.591,1.165,0.824,0.373,0.658,0.616,�k�k��,1.9,��
2021/03/27,08:00,0.636,0.938,0.592,1.165,0.825,0.373,0.657,0.616,�k��,2.5,��
2021/03/27,08:10,0.640,0.939,0.591,1.169,0.824,0.374,0.658,0.616,�k�k��,3.0,��
2021/03/27,08:20,0.636,0.938,0.591,1.165,0.825,0.373,0.657,0.616,�k,2.6,��
2021/03/27,08:30,0.637,0.937,0.592,1.167,0.824,0.373,0.658,0.618,�k,3.0,��
2021/03/27,08:40,0.638,0.937,0.591,1.167,0.823,0.374,0.656,0.618,�k�k��,2.8,��
2021/03/27,08:50,0.636,0.937,0.593,1.167,0.826,0.374,0.654,0.617,�k��,3.3,��
2021/03/27,09:00,0.640,0.939,0.592,1.167,0.826,0.373,0.654,0.617,�k�k��,3.0,��
2021/03/27,09:10,0.639,0.937,0.592,1.168,0.825,0.374,0.659,0.616,�k��,3.7,��
2021/03/27,09:20,0.637,0.936,0.592,1.168,0.825,0.371,0.656,0.616,�k�k��,4.0,��
2021/03/27,09:30,0.637,0.938,0.593,1.170,0.827,0.371,0.655,0.615,�k��,4.5,��
2021/03/27,09:40,0.638,0.938,0.591,1.169,0.827,0.372,0.656,0.614,�k��,4.4,��
2021/03/27,09:50,0.636,0.937,0.594,1.165,0.825,0.372,0.657,0.614,���k��,5.4,��
2021/03/27,10:00,0.637,0.938,0.593,1.167,0.825,0.372,0.655,0.614,�k��,6.4,��
2021/03/27,10:10,0.637,0.937,0.592,1.168,0.826,0.372,0.653,0.614,�k��,6.2,��
2021/03/27,10:20,0.638,0.936,0.590,1.168,0.826,0.372,0.655,0.615,�k��,6.3,��
2021/03/27,10:30,0.637,0.938,0.593,1.167,0.825,0.371,0.656,0.614,�k�k��,5.4,��
2021/03/27,10:40,0.638,0.938,0.593,1.169,0.825,0.372,0.657,0.615,�k��,4.9,��
2021/03/27,10:50,0.638,0.940,0.593,1.168,0.827,0.372,0.656,0.615,�k�k��,5.2,��
2021/03/27,11:00,0.637,0.940,0.592,1.168,0.826,0.371,0.654,0.614,�k��,3.8,��
2021/03/27,11:10,0.636,0.939,0.592,1.170,0.825,0.373,0.657,0.614,�k��,4.3,��
2021/03/27,11:20,0.636,0.941,0.589,1.168,0.826,0.372,0.656,0.614,���k��,3.1,��
2021/03/27,11:30,0.638,0.940,0.592,1.168,0.825,0.370,0.655,0.614,���k��,3.4,��
2021/03/27,11:40,0.637,0.939,0.590,1.169,0.825,0.372,0.655,0.613,�k��,3.3,��
2021/03/27,11:50,0.636,0.938,0.592,1.169,0.825,0.370,0.656,0.614,��,2.6,��
2021/03/27,12:00,0.639,0.942,0.591,1.169,0.827,0.372,0.657,0.613,��,3.4,��
2021/03/27,12:10,0.638,0.938,0.593,1.169,0.827,0.373,0.655,0.615,���쓌,4.8,��
2021/03/27,12:20,0.636,0.939,0.590,1.168,0.827,0.372,0.655,0.614,���쓌,3.9,��
2021/03/27,12:30,0.636,0.943,0.591,1.170,0.828,0.372,0.656,0.613,���쓌,3.8,��
2021/03/27,12:40,0.638,0.940,0.592,1.170,0.827,0.373,0.655,0.614,���쓌,3.6,��
2021/03/27,12:50,0.638,0.940,0.593,1.168,0.828,0.374,0.656,0.615,��,3.8,��
2021/03/27,13:00,0.638,0.940,0.592,1.170,0.829,0.374,0.656,0.614,��,2.6,��
2021/03/27,13:10,0.637,0.941,0.590,1.170,0.827,0.375,0.655,0.613,��,3.2,��
2021/03/27,13:20,0.637,0.941,0.592,1.171,0.828,0.373,0.658,0.614,���쓌,3.0,��
2021/03/27,13:30,0.638,0.940,0.592,1.167,0.828,0.374,0.656,0.614,���쓌,3.0,��
2021/03/27,13:40,0.637,0.941,0.593,1.171,0.827,0.374,0.657,0.615,���쓌,4.1,��
2021/03/27,13:50,0.639,0.940,0.591,1.172,0.827,0.373,0.657,0.615,�쓌,3.9,��
2021/03/27,14:00,0.637,0.944,0.591,1.172,0.827,0.373,0.655,0.614,���쓌,4.1,��
2021/03/27,14:10,0.638,0.943,0.592,1.170,0.828,0.372,0.656,0.613,�쓌,3.5,��
2021/03/27,14:20,0.639,0.944,0.592,1.171,0.828,0.373,0.656,0.615,�쓌,4.6,��
2021/03/27,14:30,0.638,0.944,0.590,1.169,0.830,0.372,0.656,0.614,���쓌,3.8,��
2021/03/27,14:40,0.640,0.942,0.591,1.169,0.830,0.374,0.655,0.614,�쓌,3.6,��
2021/03/27,14:50,0.637,0.944,0.590,1.170,0.827,0.373,0.657,0.613,�쓌,4.6,��
2021/03/27,15:00,0.639,0.944,0.592,1.170,0.830,0.373,0.656,0.614,�쓌,4.1,��
2021/03/27,15:10,0.639,0.942,0.590,1.169,0.828,0.373,0.656,0.613,�쓌,3.9,��
2021/03/27,15:20,0.639,0.941,0.592,1.169,0.829,0.375,0.656,0.615,�쓌,2.9,��
2021/03/27,15:30,0.637,0.943,0.591,1.167,0.829,0.375,0.654,0.615,�쓌,3.5,��
2021/03/27,15:40,0.637,0.939,0.593,1.172,0.828,0.373,0.655,0.616,���쓌,2.6,��
2021/03/27,15:50,0.638,0.944,0.593,1.171,0.830,0.375,0.656,0.614,���쓌,3.0,��
2021/03/27,16:00,0.636,0.944,0.595,1.171,0.829,0.375,0.655,0.614,���쓌,3.1,��
2021/03/27,16:10,0.640,0.945,0.595,1.171,0.828,0.374,0.655,0.613,���쓌,2.8,��
2021/03/27,16:20,0.641,0.946,0.597,1.170,0.829,0.375,0.656,0.616,���쓌,2.2,��
2021/03/27,16:30,0.640,0.947,0.595,1.169,0.832,0.375,0.655,0.615,�쓌,2.3,��
2021/03/27,16:40,0.641,0.946,0.593,1.170,0.831,0.374,0.657,0.617,���쓌,2.2,��
2021/03/27,16:50,0.639,0.946,0.594,1.171,0.831,0.374,0.657,0.618,�쓌,2.8,��
2021/03/27,17:00,0.640,0.947,0.595,1.170,0.831,0.374,0.656,0.618,��쓌,1.7,��
2021/03/27,17:10,0.641,0.946,0.593,1.169,0.831,0.374,0.656,0.618,��쓌,2.0,��
2021/03/27,17:20,0.638,0.946,0.594,1.173,0.833,0.374,0.656,0.617,��,2.0,��
2021/03/27,17:30,0.639,0.945,0.593,1.168,0.831,0.373,0.656,0.616,��,1.5,��
2021/03/27,17:40,0.639,0.947,0.593,1.171,0.832,0.374,0.657,0.617,�쐼,1.2,��
2021/03/27,17:50,0.639,0.947,0.594,1.170,0.830,0.374,0.658,0.617,��쓌,0.9,��
2021/03/27,18:00,0.640,0.948,0.595,1.172,0.831,0.375,0.656,0.618,��쐼,0.9,��
2021/03/27,18:10,0.641,0.946,0.596,1.172,0.830,0.375,0.656,0.619,��쐼,1.2,��
2021/03/27,18:20,0.641,0.946,0.593,1.170,0.832,0.374,0.658,0.616,��쓌,1.5,��
2021/03/27,18:30,0.641,0.945,0.595,1.170,0.831,0.373,0.658,0.615,��쓌,1.7,��
2021/03/27,18:40,0.640,0.947,0.593,1.170,0.830,0.374,0.659,0.617,��쓌,2.2,��
2021/03/27,18:50,0.640,0.946,0.595,1.170,0.830,0.373,0.657,0.617,-,CALM,��
2021/03/27,19:00,0.641,0.947,0.594,1.170,0.830,0.373,0.657,0.618,��,1.1,��
2021/03/27,19:10,0.640,0.946,0.593,1.171,0.832,0.375,0.658,0.618,��,2.0,��
2021/03/27,19:20,0.639,0.946,0.593,1.172,0.830,0.373,0.657,0.618,��,2.6,��
2021/03/27,19:30,0.641,0.947,0.593,1.170,0.831,0.374,0.657,0.616,��쓌,2.5,��
2021/03/27,19:40,0.639,0.945,0.593,1.170,0.831,0.374,0.657,0.616,��,0.9,��
2021/03/27,19:50,0.639,0.945,0.594,1.172,0.830,0.373,0.659,0.617,��쓌,1.7,��
2021/03/27,20:00,0.639,0.946,0.592,1.169,0.831,0.374,0.658,0.617,��,2.3,��
2021/03/27,20:10,0.640,0.946,0.595,1.172,0.830,0.372,0.657,0.619,��,2.9,��
2021/03/27,20:20,0.640,0.946,0.593,1.168,0.831,0.373,0.658,0.618,��,2.3,��
2021/03/27,20:30,0.640,0.945,0.593,1.172,0.829,0.374,0.659,0.617,��,3.5,��
2021/03/27,20:40,0.639,0.945,0.593,1.170,0.831,0.374,0.657,0.616,��쐼,1.4,��
2021/03/27,20:50,0.640,0.945,0.593,1.169,0.831,0.372,0.658,0.619,��쐼,3.6,��
2021/03/27,21:00,0.639,0.944,0.593,1.170,0.831,0.374,0.658,0.617,��,5.1,��
2021/03/27,21:10,0.640,0.945,0.594,1.172,0.829,0.374,0.657,0.617,��,5.9,��
2021/03/27,21:20,0.639,0.946,0.594,1.170,0.831,0.375,0.657,0.617,��,7.7,��
2021/03/27,21:30,0.639,0.943,0.593,1.167,0.829,0.374,0.658,0.617,��,6.5,��
2021/03/27,21:40,0.639,0.946,0.594,1.171,0.831,0.375,0.660,0.616,��,5.4,��
2021/03/27,21:50,0.640,0.946,0.593,1.170,0.831,0.373,0.659,0.618,��,3.6,��
2021/03/27,22:00,0.638,0.947,0.592,1.169,0.829,0.375,0.659,0.616,��,3.7,��
2021/03/27,22:10,0.640,0.946,0.594,1.170,0.831,0.374,0.656,0.617,��,3.5,��
2021/03/27,22:20,0.638,0.946,0.592,1.170,0.832,0.375,0.659,0.618,��,3.1,��
2021/03/27,22:30,0.639,0.945,0.594,1.171,0.831,0.375,0.658,0.618,��,3.3,��
2021/03/27,22:40,0.640,0.944,0.595,1.168,0.832,0.374,0.656,0.618,��쓌,3.5,��
2021/03/27,22:50,0.640,0.943,0.593,1.170,0.830,0.376,0.657,0.615,��쓌,2.6,��
2021/03/27,23:00,0.639,0.943,0.595,1.171,0.831,0.375,0.659,0.617,��쓌,5.0,��
2021/03/27,23:10,0.640,0.943,0.594,1.172,0.830,0.373,0.657,0.617,��쓌,6.4,��
2021/03/27,23:20,0.641,0.943,0.595,1.174,0.829,0.375,0.657,0.617,��,6.2,��
2021/03/27,23:30,0.639,0.945,0.594,1.171,0.831,0.375,0.659,0.617,��쓌,4.0,��
2021/03/27,23:40,0.638,0.945,0.595,1.171,0.829,0.373,0.659,0.616,��,6.0,��
2021/03/27,23:50,0.641,0.945,0.594,1.170,0.831,0.375,0.659,0.617,��,5.8,��
